Location: Kershaw
(34.5481°N, 80.5823°W)
Time: 19:33:06
(UTC+00:00)

Transit 4A - Pass Details

Date: 06 October 2022
Orbit: 871 x 972 km, 66.8° (Epoch: 01 December)

Event Time Altitude Azimuth Distance (km) Brightness Sun altitude
Rises 02:04:39 0° 200° (SSW) 3,618 - -37.9°
Reaches altitude 10° 02:07:12 10° 198° (SSW) 2,664 - -38.4°
Maximum altitude 02:13:24 75° 114° (ESE) 964 - -39.6°
Drops below altitude 10° 02:19:28 10° 30° (NNE) 2,609 - -40.7°
Sets 02:21:57 0° 29° (NNE) 3,539 - -41.2°
